MPEC 2008-C27 : 2008 CM1
The following Minor Planet Electronic Circular may be linked-to from your own Web pages, but must not otherwise be redistributed electronically.A form allowing access to any MPEC is at the bottom of this page.


M.P.E.C. 2008-C27 Issued 2008 Feb. 4, 15:37 UT The Minor Planet Electronic Circulars contain information on unusual minor planets and routine data on comets. They are published on behalf of Commission 20 of the International Astronomical Union by the Minor Planet Center, Smithsonian Astrophysical Observatory, Cambridge, MA 02138, U.S.A. Prepared using the Tamkin Foundation Computer Network MPC@CFA.HARVARD.EDU URL http://www.cfa.harvard.edu/iau/mpc.html ISSN 1523-6714 2008 CM1 Observations: K08C01M C2008 02 02.43674 10 01 33.27 +05 13 05.6 20.7 V EC027703 K08C01M C2008 02 02.44390 10 01 32.77 +05 13 34.7 20.0 V EC027703 K08C01M C2008 02 02.45111 10 01 32.19 +05 14 04.3 19.9 V EC027703 K08C01M C2008 02 02.45829 10 01 31.58 +05 14 34.1 19.8 V EC027703 K08C01M* C2008 02 02.46602 10 01 31.00 +05 15 05.1 19.9 V EC027703 K08C01M C2008 02 02.46689 10 01 30.85 +05 15 08.9 19.9 V EC027703 K08C01M C2008 02 02.46777 10 01 30.97 +05 15 15.2 19.4 V EC027703 K08C01M C2008 02 02.46866 10 01 30.76 +05 15 16.8 20.5 V EC027703 K08C01M C2008 02 02.94712 10 00 54.51 +05 48 16.4 20.0 V EC027B21 K08C01M C2008 02 02.95298 10 00 54.07 +05 48 40.0 19.5 V EC027B21 K08C01M C2008 02 02.95591 10 00 53.81 +05 48 52.0 20.5 V EC027B21 K08C01M C2008 02 02.96008 10 00 53.48 +05 49 10.2 19.4 R EC027143 K08C01M C2008 02 02.97501 10 00 52.28 +05 50 12.1 19.4 V EC027A17 K08C01M C2008 02 02.97514 10 00 52.17 +05 50 12.9 20.4 V EC027B03 K08C01M C2008 02 02.98221 10 00 51.77 +05 50 42.8 19.4 R EC027143 K08C01M C2008 02 02.98292 10 00 51.66 +05 50 45.4 19.5 V EC027A17 K08C01M C2008 02 02.98297 10 00 51.61 +05 50 45.7 20.1 V EC027B03 K08C01M C2008 02 02.99079 10 00 50.93 +05 51 18.0 19.9 V EC027B03 K08C01M C2008 02 02.99282 10 00 50.85 +05 51 26.5 19.6 V EC027A17 K08C01M C2008 02 03.00088 10 00 50.16 +05 52 01.3 19.6 V EC027A17 K08C01M C2008 02 03.09885 10 00 42.11 +05 58 49.7 EC027118 K08C01M C2008 02 03.10506 10 00 41.52 +05 59 15.7 EC027118 K08C01M C2008 02 03.30890910 00 25.79 +06 13 34.1 20.6 V EC027H55 K08C01M C2008 02 03.31097 10 00 25.97 +06 13 44.4 19.3 R EC027854 K08C01M C2008 02 03.31259310 00 25.46 +06 13 49.3 20.4 V EC027H55 K08C01M C2008 02 03.31480 10 00 25.59 +06 14 00.8 19.3 R EC027854 K08C01M C2008 02 03.31627410 00 25.18 +06 14 05.1 20.4 V EC027H55 K08C01M C2008 02 03.31864 10 00 25.26 +06 14 16.4 19.5 R EC027854 K08C01M C2008 02 03.37990 10 00 20.12 +06 18 34.3 19.5 V EC027703 K08C01M C2008 02 03.38596 10 00 19.54 +06 18 59.9 19.7 V EC027703 K08C01M C2008 02 03.39205 10 00 19.00 +06 19 25.6 19.1 V EC027703 K08C01M C2008 02 03.39816 10 00 18.50 +06 19 51.2 20.3 V EC027703 K08C01M C2008 02 03.41086 10 00 17.44 +06 20 45.0 19.7 R EC027448 K08C01M C2008 02 03.42847 10 00 15.94 +06 21 59.3 19.3 R EC027448 K08C01M C2008 02 03.44666 10 00 14.42 +06 23 16.7 19.3 R EC027448 K08C01M C2008 02 03.93199 09 59 36.09 +06 57 35.8 19.4 R EC027B15 K08C01M C2008 02 03.94005 09 59 35.41 +06 58 10.3 19.2 R EC027B15 K08C01M C2008 02 03.94406 09 59 35.07 +06 58 27.0 19.0 R EC027B15 K08C01M C2008 02 03.97029 09 59 32.86 +07 00 19.8 EC027246 K08C01M C2008 02 03.97171 09 59 32.72 +07 00 26.3 EC027246 K08C01M C2008 02 03.97240 09 59 32.70 +07 00 29.0 EC027246 K08C01M C2008 02 03.97407 09 59 32.54 +07 00 36.5 EC027246 K08C01M C2008 02 03.97484 09 59 32.46 +07 00 39.7 EC027246 K08C01M C2008 02 03.97565 09 59 32.36 +07 00 43.5 EC027246 K08C01M C2008 02 03.97630 09 59 32.31 +07 00 46.7 EC027246 K08C01M fC2008 02 04.31667 09 59 04.43 +07 25 14.2 EC027711 K08C01M C2008 02 04.32006 09 59 04.15 +07 25 28.4 19.0 R EC027711 K08C01M IC2008 02 04.32345 09 59 03.83 +07 25 43.3 18.9 R EC027711 Observer details: 118 Modra. Observers S. Gajdos, J. Vilagi. 0.6-m f/5.5 reflector + CCD. 143 Gnosca. Observer S. Sposetti. 0.40-m f/4 reflector + CCD. 246 Klet Observatory-KLENOT. Observers M. Tichy, J. Ticha. Measurer M. Tichy. 1.06-m KLENOT Telescope + CCD. 448 Desert Moon Observatory. Observer B. L. Stevens. 0.3-m Schmidt-Cassegrain + CCD. 703 Catalina Sky Survey. Observer A. Boattini. Measurers E. C. Beshore, A. Boattini, G. J. Garradd, A. R. Gibbs, A. D. Grauer, R. E. Hill, R. A. Kowalski, S. M. Larson, R. H. McNaught. 0.68-m Schmidt + CCD. 711 McDonald Observatory. Observer J. G. Ries. 0.76-m reflector + CCD + prime-focus corrector. 854 Sabino Canyon Observatory, Tucson. Observer J. E. McGaha. 0.36-m f/10.0 Schmidt-Cassegrain + CCD. A17 Guidestar Observatory, Weinheim. Observers M. Emmerich, S. Melchert. 0.36-m f/6 Schmidt-Cassegrain + CCD. B03 Alter Satzberg, Vienna. Observer M. Pietschnig. 0.35-m f/7 Schmidt-Cassegrain + CCD. B15 Inastars Observatory, Potsdam (since 2006). Observer B. Thinius. 0.36-m f/5.8 Schmidt-Cassegrain + CCD. B21 Gaisberg Observatory, Schaerding. Observer R. Gierlinger. 0.6-m f/3.3 Newtonian reflector + CCD. H55 Astronomical Research Observatory, Charleston. Observer R. Holmes. 0.61-m f/4.0 astrograph + CCD. Orbital elements: 2008 CM1 Epoch 2007 Oct. 27.0 TT = JDT 2454400.5 MPC M 288.23307 (2000.0) P Q n 0.35089202 Peri. 60.52502 -0.69565619 +0.50891558 a 1.9907668 Node 141.75214 -0.36406667 -0.85819261 e 0.2856187 Incl. 54.98549 +0.61928824 +0.06715927 P 2.81 H 19.1 G 0.15 U 9 Residuals in seconds of arc 080202 703 0.7- 0.2+ 080202 B03 0.5+ 0.1- 080203 448 0.1- 0.0 080202 703 0.4+ 0.2- 080202 B03 0.1- 0.5- 080203 448 0.4- 0.0 080202 703 0.4+ 0.2- 080202 A17 0.1+ 0.2- 080203 448 0.4- 0.7+ 080202 703 0.1- 0.1+ 080203 A17 0.4- 0.9+ 080203 B15 0.1- 0.0 080202 703 0.5+ 0.7- 080203 118 0.5+ 0.4- 080203 B15 0.1- 0.0 080202 703 0.7- 0.5- 080203 118 0.7- 0.3- 080203 B15 0.1- 0.5- 080202 703 2.1+ 2.2+ 080203 H55 0.1+ 0.3+ 080203 246 0.1+ 0.6- 080202 703 0.1+ 0.1+ 080203 854 1.0+ 0.5+ 080203 246 0.2- 0.2- 080202 B21 0.3- 0.3+ 080203 H55 0.2- 0.0 080203 246 0.4+ 0.5- 080202 B21 0.2+ 0.6- 080203 854 0.2+ 0.7+ 080203 246 0.2+ 0.1- 080202 B21 0.1- 0.8- 080203 H55 0.2+ 0.3+ 080203 246 0.1- 0.2- 080202 143 0.7- 0.4- 080203 854 0.0 0.2+ 080203 246 0.5- 0.1+ 080202 A17 0.3- 0.2- 080203 703 0.3+ 0.1- 080203 246 0.4- 0.5+ 080202 B03 0.7- 0.2- 080203 703 0.8- 0.1- 080204 711 0.6+ 0.5+ 080202 143 0.8+ 0.2- 080203 703 1.2- 0.1- 080204 711 0.8+ 0.1+ 080202 A17 0.1+ 0.0 080203 703 0.9- 0.2- 080204 711 0.5+ 0.4+ Ephemeris: 2008 CM1 a,e,i = 1.99, 0.29, 55 q = 1.4222 Date TT R. A. (2000) Decl. Delta r Elong. Phase V 2008 02 04 09 59.51 +07 02.6 0.647 1.618 164.2 9.6 19.8 2008 02 14 09 43.30 +20 05.5 0.602 1.586 173.2 4.2 19.4 2008 02 24 09 23.07 +33 32.2 0.611 1.557 152.2 17.2 19.9 2008 03 05 09 01.88 +44 39.9 0.669 1.529 133.1 28.3 20.4 2008 03 15 08 43.87 +52 33.6 0.757 1.504 117.7 35.8 20.8 2008 03 25 08 32.59 +57 48.8 0.859 1.482 105.7 40.4 21.2 2008 04 04 08 29.80 +61 18.2 0.964 1.462 96.2 42.8 21.5 2008 04 14 08 35.96 +63 40.0 1.065 1.447 88.7 43.9 21.7 2008 04 24 08 50.62 +65 16.4 1.157 1.435 82.8 44.1 21.9 2008 05 04 09 12.96 +66 17.1 1.237 1.427 78.1 43.8 22.0 Timothy B. Spahr (C) Copyright 2008 MPC M.P.E.C. 2008-C27


Enter an MPEC number in one of the following forms:
- 1997-B01 (the full form)
- J97B01 (the packed version of the full form)
- B01 (the abbreviated form)